Time,TemperatureF,DewpointF,PressureIn,WindDirection,WindDirectionDegrees,WindSpeedMPH,WindSpeedGustMPH,Humidity,HourlyPrecipIn,Conditions,Clouds,dailyrainin,SoftwareType,DateUTC
2013-02-07 00:02:00,40.0,26.0,30.14,WNW,301,0.0,0.0,56,0.00,,,0.00,,2013-02-07 05:02:00,
2013-02-07 00:32:00,38.0,25.0,30.11,WNW,301,0.0,0.0,59,0.00,,,0.00,,2013-02-07 05:32:00,
2013-02-07 00:43:00,38.0,25.0,30.11,WNW,301,0.0,0.0,59,0.00,,,0.00,,2013-02-07 05:43:00,
2013-02-07 00:52:00,38.0,25.0,30.11,WNW,301,0.0,0.0,59,0.00,,,0.00,,2013-02-07 05:52:00,
2013-02-07 01:02:00,38.0,25.0,30.11,WNW,301,0.0,0.0,59,0.00,,,0.00,,2013-02-07 06:02:00,
2013-02-07 01:11:00,38.0,25.0,30.11,WNW,301,0.0,0.0,59,0.00,,,0.00,,2013-02-07 06:11:00,
2013-02-07 01:32:00,36.0,26.0,30.11,ENE,61,1.0,2.0,67,0.00,,,0.00,,2013-02-07 06:32:00,
2013-02-07 01:43:00,36.0,26.0,30.11,ENE,61,1.0,2.0,67,0.00,,,0.00,,2013-02-07 06:43:00,
2013-02-07 01:53:00,36.0,26.0,30.11,ENE,61,1.0,2.0,67,0.00,,,0.00,,2013-02-07 06:53:00,
2013-02-07 02:02:00,36.0,26.0,30.11,ENE,61,1.0,2.0,67,0.00,,,0.00,,2013-02-07 07:02:00,
2013-02-07 02:11:00,36.0,26.0,30.11,ENE,61,1.0,2.0,67,0.00,,,0.00,,2013-02-07 07:11:00,
2013-02-07 02:32:00,37.0,26.0,30.12,SE,141,1.0,2.0,65,0.00,,,0.00,,2013-02-07 07:32:00,
2013-02-07 02:42:00,37.0,26.0,30.12,SE,141,1.0,2.0,65,0.00,,,0.00,,2013-02-07 07:42:00,
2013-02-07 02:52:00,37.0,26.0,30.12,SE,141,1.0,2.0,65,0.00,,,0.00,,2013-02-07 07:52:00,
2013-02-07 03:02:00,37.0,26.0,30.12,SE,141,1.0,2.0,65,0.00,,,0.00,,2013-02-07 08:02:00,
2013-02-07 03:11:00,37.0,26.0,30.12,SE,141,1.0,2.0,65,0.00,,,0.00,,2013-02-07 08:11:00,
2013-02-07 03:32:00,40.0,22.0,30.13,SE,140,0.0,0.0,49,0.00,,,0.00,,2013-02-07 08:32:00,
2013-02-07 03:42:00,40.0,22.0,30.13,SE,140,0.0,0.0,49,0.00,,,0.00,,2013-02-07 08:42:00,
2013-02-07 03:52:00,40.0,22.0,30.13,SE,140,0.0,0.0,49,0.00,,,0.00,,2013-02-07 08:52:00,
2013-02-07 04:02:00,40.0,22.0,30.13,SE,140,0.0,0.0,49,0.00,,,0.00,,2013-02-07 09:02:00,
2013-02-07 04:11:00,40.0,22.0,30.13,SE,140,0.0,0.0,49,0.00,,,0.00,,2013-02-07 09:11:00,
2013-02-07 06:32:00,36.0,26.0,30.14,SE,140,0.0,0.0,67,0.00,,,0.00,,2013-02-07 11:32:00,
2013-02-07 06:44:00,36.0,26.0,30.14,SE,140,0.0,0.0,67,0.00,,,0.00,,2013-02-07 11:44:00,
2013-02-07 06:53:00,36.0,26.0,30.14,SE,140,0.0,0.0,67,0.00,,,0.00,,2013-02-07 11:53:00,
2013-02-07 07:02:00,36.0,26.0,30.14,SE,140,0.0,0.0,67,0.00,,,0.00,,2013-02-07 12:02:00,
2013-02-07 07:11:00,36.0,26.0,30.14,SE,140,0.0,0.0,67,0.00,,,0.00,,2013-02-07 12:11:00,
2013-02-07 07:12:00,38.0,26.0,30.15,SE,140,0.0,0.0,62,0.00,,,0.00,,2013-02-07 12:12:00,
2013-02-07 07:33:00,38.0,26.0,30.15,SE,140,0.0,0.0,62,0.00,,,0.00,,2013-02-07 12:33:00,
2013-02-07 07:42:00,38.0,26.0,30.15,SE,140,0.0,0.0,62,0.00,,,0.00,,2013-02-07 12:42:00,
2013-02-07 07:53:00,38.0,26.0,30.15,SE,140,0.0,0.0,62,0.00,,,0.00,,2013-02-07 12:53:00,
2013-02-07 08:03:00,38.0,26.0,30.15,SE,140,0.0,0.0,62,0.00,,,0.00,,2013-02-07 13:03:00,
2013-02-07 08:32:00,38.0,24.0,30.16,SE,140,0.0,0.0,56,0.00,,,0.00,,2013-02-07 13:32:00,
2013-02-07 08:42:00,38.0,24.0,30.16,SE,140,0.0,0.0,56,0.00,,,0.00,,2013-02-07 13:42:00,
2013-02-07 08:52:00,38.0,24.0,30.16,SE,140,0.0,0.0,56,0.00,,,0.00,,2013-02-07 13:52:00,
2013-02-07 09:01:00,38.0,24.0,30.16,SE,140,0.0,0.0,56,0.00,,,0.00,,2013-02-07 14:01:00,
2013-02-07 09:11:00,38.0,24.0,30.16,SE,140,0.0,0.0,56,0.00,,,0.00,,2013-02-07 14:11:00,
2013-02-07 10:32:00,41.0,29.0,30.14,SE,140,0.0,0.0,62,0.00,,,0.00,,2013-02-07 15:32:00,
2013-02-07 10:42:00,41.0,29.0,30.14,SE,140,0.0,0.0,62,0.00,,,0.00,,2013-02-07 15:42:00,
2013-02-07 10:52:00,41.0,29.0,30.14,SE,140,0.0,0.0,62,0.00,,,0.00,,2013-02-07 15:52:00,
2013-02-07 11:01:00,41.0,29.0,30.14,SE,140,0.0,0.0,62,0.00,,,0.00,,2013-02-07 16:01:00,
2013-02-07 11:11:00,41.0,29.0,30.14,SE,140,0.0,0.0,62,0.00,,,0.00,,2013-02-07 16:11:00,
2013-02-07 11:32:00,42.0,28.0,30.13,West,277,0.0,3.0,58,0.00,,,0.00,,2013-02-07 16:32:00,
2013-02-07 11:42:00,42.0,28.0,30.13,West,277,0.0,3.0,58,0.00,,,0.00,,2013-02-07 16:42:00,
2013-02-07 11:52:00,42.0,28.0,30.13,West,277,0.0,3.0,58,0.00,,,0.00,,2013-02-07 16:52:00,
2013-02-07 12:01:00,42.0,28.0,30.13,West,277,0.0,3.0,58,0.00,,,0.00,,2013-02-07 17:01:00,
2013-02-07 12:11:00,42.0,28.0,30.13,West,277,0.0,3.0,58,0.00,,,0.00,,2013-02-07 17:11:00,
2013-02-07 12:32:00,42.0,35.0,30.11,West,277,0.0,1.0,77,0.00,,,0.00,,2013-02-07 17:32:00,
2013-02-07 12:43:00,42.0,35.0,30.11,West,277,0.0,1.0,77,0.00,,,0.00,,2013-02-07 17:43:00,
2013-02-07 12:52:00,42.0,35.0,30.11,West,277,0.0,1.0,77,0.00,,,0.00,,2013-02-07 17:52:00,
2013-02-07 13:02:00,42.0,35.0,30.11,West,277,0.0,1.0,77,0.00,,,0.00,,2013-02-07 18:02:00,
2013-02-07 13:11:00,42.0,35.0,30.11,West,277,0.0,1.0,77,0.00,,,0.00,,2013-02-07 18:11:00,
2013-02-07 13:32:00,40.0,36.0,30.06,West,277,0.0,0.0,87,0.04,,,0.04,,2013-02-07 18:32:00,
2013-02-07 13:42:00,40.0,36.0,30.06,West,277,0.0,0.0,87,0.04,,,0.04,,2013-02-07 18:42:00,
2013-02-07 13:52:00,40.0,36.0,30.06,West,277,0.0,0.0,87,0.04,,,0.04,,2013-02-07 18:52:00,
2013-02-07 14:01:00,40.0,36.0,30.06,West,277,0.0,0.0,87,0.04,,,0.04,,2013-02-07 19:01:00,
2013-02-07 14:11:00,40.0,36.0,30.06,West,277,0.0,0.0,87,0.04,,,0.04,,2013-02-07 19:11:00,
2013-02-07 14:32:00,39.0,38.0,30.07,West,277,0.0,0.0,96,0.04,,,0.08,,2013-02-07 19:32:00,
2013-02-07 14:42:00,39.0,38.0,30.07,West,277,0.0,0.0,96,0.04,,,0.08,,2013-02-07 19:42:00,
2013-02-07 14:52:00,39.0,38.0,30.07,West,277,0.0,0.0,96,0.04,,,0.08,,2013-02-07 19:52:00,
2013-02-07 15:01:00,39.0,38.0,30.07,West,277,0.0,0.0,96,0.04,,,0.08,,2013-02-07 20:01:00,
2013-02-07 15:11:00,39.0,38.0,30.07,West,277,0.0,0.0,96,0.04,,,0.08,,2013-02-07 20:11:00,
2013-02-07 15:32:00,39.0,39.0,30.05,West,277,0.0,0.0,99,0.03,,,0.10,,2013-02-07 20:32:00,
2013-02-07 15:42:00,39.0,39.0,30.05,West,277,0.0,0.0,99,0.03,,,0.10,,2013-02-07 20:42:00,
2013-02-07 15:52:00,39.0,39.0,30.05,West,277,0.0,0.0,99,0.03,,,0.10,,2013-02-07 20:52:00,
2013-02-07 16:02:00,39.0,39.0,30.05,West,277,0.0,0.0,99,0.03,,,0.10,,2013-02-07 21:02:00,
2013-02-07 16:11:00,39.0,39.0,30.05,West,277,0.0,0.0,99,0.03,,,0.10,,2013-02-07 21:11:00,
2013-02-07 16:32:00,39.0,39.0,30.02,West,277,0.0,0.0,100,0.04,,,0.14,,2013-02-07 21:32:00,
2013-02-07 16:42:00,39.0,39.0,30.02,West,277,0.0,0.0,100,0.04,,,0.14,,2013-02-07 21:42:00,
2013-02-07 16:52:00,39.0,39.0,30.02,West,277,0.0,0.0,100,0.04,,,0.14,,2013-02-07 21:52:00,
2013-02-07 17:02:00,39.0,39.0,30.02,West,277,0.0,0.0,100,0.04,,,0.14,,2013-02-07 22:02:00,
2013-02-07 17:11:00,39.0,39.0,30.02,West,277,0.0,0.0,100,0.04,,,0.14,,2013-02-07 22:11:00,
2013-02-07 17:32:00,39.0,39.0,29.99,West,277,0.0,0.0,100,0.06,,,0.20,,2013-02-07 22:32:00,
2013-02-07 17:42:00,39.0,39.0,29.99,West,277,0.0,0.0,100,0.06,,,0.20,,2013-02-07 22:42:00,
2013-02-07 17:52:00,39.0,39.0,29.99,West,277,0.0,0.0,100,0.06,,,0.20,,2013-02-07 22:52:00,
2013-02-07 18:02:00,39.0,39.0,29.99,West,277,0.0,0.0,100,0.06,,,0.20,,2013-02-07 23:02:00,
2013-02-07 18:11:00,39.0,39.0,29.99,West,277,0.0,0.0,100,0.06,,,0.20,,2013-02-07 23:11:00,
2013-02-07 18:32:00,39.0,39.0,29.96,West,277,0.0,0.0,100,0.07,,,0.26,,2013-02-07 23:32:00,
2013-02-07 18:42:00,39.0,39.0,29.96,West,277,0.0,0.0,100,0.07,,,0.26,,2013-02-07 23:42:00,
2013-02-07 18:52:00,39.0,39.0,29.96,West,277,0.0,0.0,100,0.07,,,0.26,,2013-02-07 23:52:00,
2013-02-07 19:02:00,39.0,39.0,29.96,West,277,0.0,0.0,100,0.07,,,0.26,,2013-02-08 00:02:00,
2013-02-07 19:11:00,39.0,39.0,29.96,West,277,0.0,0.0,100,0.07,,,0.26,,2013-02-08 00:11:00,
2013-02-07 19:32:00,39.0,39.0,29.96,West,277,0.0,0.0,100,0.03,,,0.29,,2013-02-08 00:32:00,
2013-02-07 19:42:00,39.0,39.0,29.96,West,277,0.0,0.0,100,0.03,,,0.29,,2013-02-08 00:42:00,
2013-02-07 19:52:00,39.0,39.0,29.96,West,277,0.0,0.0,100,0.03,,,0.29,,2013-02-08 00:52:00,
2013-02-07 20:01:00,39.0,39.0,29.96,West,277,0.0,0.0,100,0.03,,,0.29,,2013-02-08 01:01:00,
2013-02-07 20:11:00,39.0,39.0,29.96,West,277,0.0,0.0,100,0.03,,,0.29,,2013-02-08 01:11:00,
2013-02-07 20:32:00,39.0,39.0,29.97,West,277,0.0,0.0,100,0.03,,,0.32,,2013-02-08 01:32:00,
2013-02-07 20:42:00,39.0,39.0,29.97,West,277,0.0,0.0,100,0.03,,,0.32,,2013-02-08 01:42:00,
2013-02-07 20:52:00,39.0,39.0,29.97,West,277,0.0,0.0,100,0.03,,,0.32,,2013-02-08 01:52:00,
2013-02-07 21:01:00,39.0,39.0,29.97,West,277,0.0,0.0,100,0.03,,,0.32,,2013-02-08 02:01:00,
2013-02-07 21:11:00,39.0,39.0,29.97,West,277,0.0,0.0,100,0.03,,,0.32,,2013-02-08 02:11:00,
2013-02-07 22:32:00,40.0,40.0,29.93,West,277,0.0,0.0,100,0.03,,,0.39,,2013-02-08 03:32:00,
2013-02-07 22:42:00,40.0,40.0,29.93,West,277,0.0,0.0,100,0.03,,,0.39,,2013-02-08 03:42:00,
2013-02-07 22:52:00,40.0,40.0,29.93,West,277,0.0,0.0,100,0.03,,,0.39,,2013-02-08 03:52:00,
2013-02-07 23:02:00,40.0,40.0,29.93,West,277,0.0,0.0,100,0.03,,,0.39,,2013-02-08 04:02:00,
2013-02-07 23:11:00,40.0,40.0,29.93,West,277,0.0,0.0,100,0.03,,,0.39,,2013-02-08 04:11:00,
2013-02-07 23:12:00,40.0,40.0,29.92,WNW,285,0.0,3.0,100,0.01,,,0.40,,2013-02-08 04:12:00,
2013-02-07 23:32:00,40.0,40.0,29.92,WNW,285,0.0,3.0,100,0.01,,,0.40,,2013-02-08 04:32:00,
2013-02-07 23:42:00,40.0,40.0,29.92,WNW,285,0.0,3.0,100,0.01,,,0.40,,2013-02-08 04:42:00,
2013-02-07 23:52:00,40.0,40.0,29.92,WNW,285,0.0,3.0,100,0.01,,,0.40,,2013-02-08 04:52:00,